Wind_Speed
6 6 2 1 3 4 3 6 3 6 2 2 2 3 2 0 4 4 5 14 20 25 28 26 25 23 21 20 20 18 17 17 16 16 17 17 17 15 13 12 10 9 8 6 5 4 3 3 2
8 6 1 1 4 2 5 4 7 7 6 3 3 1 1 2 1 2 6 13 21 25 25 25 25 23 21 21 20 19 19 19 18 18 18 17 16 14 13 12 11 9 7 6 4 3 3 2 1
6 2 1 3 4 4 5 5 7 9 10 19 5 3 4 2 2 9 7 16 20 23 24 24 23 23 21 21 20 20 20 20 20 19 18 17 15 15 14 12 10 9 7 6 5 4 2 1 0
2 2 4 3 5 6 6 8 8 13 9 6 8 3 2 4 7 7 16 17 18 20 22 23 22 21 21 20 20 20 19 20 19 18 18 17 15 14 13 11 10 8 7 6 5 3 2 1 1
4 2 2 1 5 5 6 14 17 8 5 3 10 5 2 6 11 10 14 18 19 20 20 20 21 21 21 20 18 19 21 20 19 18 17 15 14 13 11 10 8 7 6 5 4 3 1 1 3
1 2 3 4 5 5 7 18 7 4 4 4 4 9 5 9 13 14 15 16 18 20 20 20 20 21 20 20 23 22 21 20 18 16 15 15 15 14 13 12 10 9 7 4 3 3 2 3 4
5 4 4 4 4 7 5 5 5 5 1 4 6 5 3 16 19 18 19 17 19 19 21 20 20 18 20 21 21 21 21 20 17 15 15 15 14 13 13 12 10 9 7 5 4 4 6 6 6
4 4 2 4 3 8 5 10 13 3 4 5 7 4 5 20 24 22 23 21 21 22 21 20 20 20 23 22 20 20 19 17 17 16 15 16 17 15 13 12 12 9 6 2 4 8 7 6 6
9 2 3 5 4 7 13 4 16 3 6 9 9 8 7 11 25 27 26 26 25 25 23 22 21 21 25 22 20 20 19 18 17 17 18 17 15 13 12 11 8 7 5 7 19 11 7 5 4
5 5 10 9 6 7 10 4 14 3 5 7 12 15 14 12 28 32 33 34 31 29 25 24 23 22 25 24 23 22 19 19 18 17 16 16 14 13 11 10 10 9 7 6 9 7 4 3 1
4 6 5 6 15 12 6 8 7 4 4 15 13 19 16 21 30 35 35 34 35 30 28 27 24 24 25 25 25 22 22 20 18 16 16 17 15 12 10 10 10 9 8 6 6 5 4 1 1
3 9 8 9 8 4 4 10 8 11 18 23 13 17 18 25 32 36 37 38 38 36 30 28 27 26 26 26 26 25 23 22 21 19 19 17 15 12 11 12 10 7 6 6 5 4 3 1 0
5 5 7 11 23 23 17 13 12 15 27 24 27 22 22 25 32 35 36 36 38 37 33 31 29 30 27 25 27 27 24 22 21 20 20 18 15 13 12 11 9 7 7 7 6 5 4 3 1
3 7 17 19 23 15 9 9 4 9 10 14 17 24 27 29 33 35 38 40 40 37 35 33 31 29 29 30 29 26 23 21 20 19 17 15 15 13 13 11 10 10 9 8 7 6 5 4 3
8 7 8 9 5 5 5 6 6 4 12 12 17 23 26 29 29 36 36 40 39 38 35 35 32 29 28 26 25 25 23 20 17 16 15 15 14 13 13 12 11 11 11 9 8 6 5 5 5
5 1 3 5 1 3 3 7 8 7 9 12 17 21 25 26 31 32 34 37 39 37 39 35 33 31 29 28 27 25 22 19 17 15 15 15 15 14 13 13 13 12 11 9 8 8 7 7 7
2 5 4 8 3 3 3 7 8 21 6 12 14 21 27 30 32 34 36 38 36 35 36 37 35 33 31 29 27 24 22 20 17 16 16 16 16 15 15 14 13 12 11 9 8 8 6 8 9
6 4 4 5 6 8 8 18 11 30 11 19 20 20 27 31 35 36 35 37 36 36 37 39 36 35 34 31 30 27 25 22 19 17 17 17 17 16 16 15 14 12 10 10 9 8 10 10 12
2 4 6 12 9 4 13 19 16 16 20 15 24 24 26 29 25 34 37 40 39 39 40 43 41 39 38 37 35 33 30 26 21 20 20 20 19 18 17 15 14 12 11 11 11 10 11 15 16
6 7 9 6 8 6 6 20 13 9 17 22 24 29 27 26 26 30 36 42 44 43 44 45 43 42 41 39 37 35 31 26 23 22 21 19 18 18 16 15 14 13 12 10 10 9 12 16 18
5 5 5 9 3 4 6 17 6 6 8 23 25 26 19 21 25 30 34 41 45 45 47 47 46 43 41 39 37 33 29 26 26 25 24 22 22 20 17 15 14 13 12 10 10 10 12 15 17
4 10 7 5 5 5 5 9 31 2 10 10 17 21 27 25 25 27 32 40 46 47 46 49 47 45 41 39 37 36 35 35 33 28 23 21 19 17 15 14 13 11 11 11 10 10 12 14 17
10 8 8 4 5 4 15 3 15 5 7 7 7 16 25 26 28 30 32 36 43 47 49 50 49 46 41 39 37 36 36 33 27 25 24 23 21 19 18 16 14 13 11 10 9 10 12 15 16
6 4 4 4 4 9 30 9 18 15 7 1 6 17 23 30 24 24 26 33 37 43 49 52 49 46 42 38 37 38 35 31 28 27 26 24 22 20 19 17 15 13 11 10 9 10 11 12 14
1 4 4 3 2 10 7 8 18 17 11 5 10 19 24 27 25 23 26 30 36 43 49 51 48 47 41 38 37 34 29 27 26 25 26 25 23 21 19 17 15 13 12 10 9 9 9 9 8
4 5 4 7 13 17 16 8 8 5 6 3 11 16 14 14 16 20 27 28 34 41 46 49 49 43 39 37 35 31 27 26 24 23 22 21 20 20 19 17 15 13 11 10 9 8 7 6 7
5 4 5 10 15 13 16 19 14 21 18 8 11 10 14 16 13 16 20 27 32 36 41 47 47 41 37 35 33 30 28 26 23 20 20 19 19 19 18 17 14 13 12 10 9 7 7 7 8
11 4 6 3 9 18 11 16 12 6 5 5 7 7 12 9 9 11 15 23 27 31 36 45 37 32 33 34 32 32 31 28 24 22 22 20 20 20 19 17 15 13 11 10 8 8 8 9 10
9 9 9 12 10 10 13 7 3 4 7 7 3 6 11 10 3 7 13 19 25 30 42 39 26 29 27 29 31 33 30 32 29 26 23 20 20 19 19 17 13 12 12 11 10 10 10 11 12
11 16 13 7 12 14 17 17 10 16 18 7 4 1 8 11 13 9 14 21 29 35 34 28 29 31 30 31 35 33 32 33 33 26 25 22 21 19 18 16 15 14 13 12 11 10 11 11 12
Wind_Direction
341 332 275 309 49 65 248 256 246 269 250 283 70 189 241 0 170 202 174 177 170 178 173 174 174 178 180 181 181 182 183 183 181 178 173 170 171 170 170 167 165 164 161 164 168 172 174 170 169
338 337 257 71 88 67 268 250 236 242 210 173 145 160 15 253 247 168 151 177 172 174 175 177 178 182 185 185 186 186 187 187 186 182 178 175 171 169 171 172 171 169 169 175 185 198 201 218 244
313 324 279 88 109 175 232 246 262 258 260 283 176 192 160 218 206 171 166 166 167 176 177 178 180 184 189 191 192 193 192 188 184 183 181 179 176 177 179 177 176 179 186 196 203 211 204 204 272
236 159 59 90 245 252 226 268 255 303 287 267 179 105 138 188 174 186 164 171 176 182 182 183 183 185 190 193 196 195 193 189 186 187 186 183 184 183 185 185 187 192 200 208 207 197 200 122 7
176 133 50 300 259 255 250 261 280 274 278 194 174 187 190 191 173 175 178 177 183 180 183 184 185 189 189 186 182 188 190 190 190 190 186 183 184 185 189 192 201 210 210 215 218 187 240 4 340
83 84 52 269 258 269 273 272 284 300 299 161 136 140 183 181 182 189 187 192 188 188 184 183 182 185 190 185 190 193 193 194 194 192 189 190 192 191 193 192 197 207 209 200 255 275 322 325 331
135 94 223 239 265 297 248 304 292 310 117 248 167 138 227 194 190 189 195 197 198 196 190 196 192 190 187 188 196 196 197 198 201 202 203 203 201 199 200 197 194 196 207 213 244 292 298 307 314
176 104 210 246 213 268 261 313 319 317 259 201 185 196 233 205 189 188 192 202 204 206 208 208 208 213 213 191 198 199 203 202 205 206 209 207 205 204 201 204 205 205 207 238 284 282 288 292 300
167 99 230 246 196 255 297 318 311 299 192 206 214 231 247 201 190 189 195 202 207 210 213 213 210 208 194 201 203 204 203 201 206 210 212 209 206 204 203 210 222 226 238 225 253 261 273 281 287
143 163 218 199 200 256 291 296 303 236 190 229 245 246 236 208 195 194 197 198 204 207 210 210 205 205 207 202 203 204 207 211 219 218 213 209 206 207 212 228 239 232 236 220 228 243 247 253 314
205 212 197 244 243 251 273 296 287 248 248 240 234 239 217 201 199 200 205 210 203 208 211 209 209 207 209 210 210 213 219 215 210 214 220 219 220 220 227 232 230 223 220 224 215 210 197 176 40
283 252 239 274 260 254 238 278 276 250 258 279 270 273 227 203 207 207 207 210 207 204 209 215 214 216 213 218 223 218 208 207 210 217 228 227 234 230 230 227 225 220 211 209 197 176 172 159 325
224 269 272 271 291 290 280 245 245 270 283 274 267 252 229 214 214 213 210 214 212 209 207 211 213 218 217 212 210 210 211 211 217 219 222 228 239 235 223 215 220 212 205 195 180 176 182 188 181
286 272 283 293 277 267 274 275 172 259 317 285 253 232 220 221 214 209 211 213 215 214 211 209 211 215 215 207 206 209 212 217 223 227 232 232 230 225 219 214 208 200 193 186 182 187 182 171 154
294 312 323 268 264 242 194 287 226 275 325 288 253 235 221 219 210 220 219 214 215 216 211 207 210 215 213 211 209 209 215 217 222 227 228 224 216 213 215 209 202 193 189 186 187 185 174 168 155
326 10 310 285 312 259 165 266 269 282 316 287 267 246 233 225 222 220 221 216 217 212 208 207 209 215 218 216 216 212 211 214 214 215 212 213 214 211 207 203 195 190 188 191 189 186 177 170 168
341 260 237 313 231 287 178 277 261 300 270 273 269 253 244 240 234 229 229 225 221 214 210 209 211 215 215 213 212 212 211 209 213 212 209 209 209 207 203 197 193 189 189 189 187 181 188 184 177
229 247 249 256 295 320 300 275 272 284 274 281 283 264 247 243 249 242 234 231 227 219 213 214 212 212 213 211 213 211 210 212 209 212 209 205 202 202 199 193 190 189 186 188 191 198 190 189 187
250 249 266 267 274 277 266 278 279 284 291 272 274 269 255 246 255 245 239 234 225 222 217 214 213 210 211 211 208 206 207 207 208 205 203 200 196 196 196 192 188 185 186 192 194 193 192 185 189
246 272 272 285 260 180 274 274 264 246 265 269 271 274 261 251 248 245 238 233 227 221 217 216 214 214 212 211 210 209 205 202 204 203 202 199 199 195 194 192 189 186 188 192 195 199 196 195 188
210 205 230 247 292 241 256 285 270 236 247 267 264 265 261 266 263 247 239 236 230 222 219 217 214 212 211 208 210 208 207 205 201 202 201 194 190 192 192 192 188 186 186 193 200 207 206 205 201
228 222 240 248 -0 281 131 290 300 196 233 233 256 258 267 278 273 258 247 236 232 228 221 219 213 210 211 213 215 216 214 208 204 201 196 196 198 192 192 190 190 189 191 194 199 205 211 217 220
264 200 214 226 245 334 277 206 270 60 278 271 259 259 280 287 287 276 254 245 237 226 219 216 211 210 211 214 218 218 217 213 205 196 194 194 192 190 191 190 192 193 191 192 197 206 217 221 223
273 271 218 219 145 250 263 191 274 271 264 167 259 258 269 288 287 278 258 238 230 228 220 216 210 209 210 213 216 219 217 210 203 198 192 192 193 192 192 192 189 186 189 193 198 203 206 208 214
221 48 307 292 178 246 292 204 237 274 305 244 289 283 287 288 284 264 244 228 223 222 218 212 206 207 208 211 214 217 217 217 211 204 197 193 193 193 194 191 186 187 188 189 188 192 197 201 207
270 197 200 271 278 286 292 253 252 261 322 18 341 323 310 296 295 271 249 240 231 219 212 208 204 206 210 209 210 213 213 216 211 205 200 196 195 193 192 191 190 187 180 182 180 178 187 197 206
342 289 284 281 272 271 265 280 279 276 275 338 6 359 338 320 299 267 250 234 224 213 210 207 202 208 208 208 208 207 205 208 210 207 199 196 195 194 192 191 191 186 179 172 167 174 186 187 183
213 313 300 251 274 264 254 256 260 335 320 340 356 14 22 346 319 279 249 233 223 217 216 204 204 210 208 210 208 203 202 207 211 213 202 197 201 194 194 191 189 186 173 172 175 182 184 181 177
304 281 270 287 264 273 281 259 246 276 267 224 204 53 57 53 355 266 242 228 217 212 211 199 194 213 216 206 208 212 212 211 210 208 204 206 203 197 196 193 185 190 181 181 186 185 185 181 181
265 270 262 250 273 260 264 267 264 262 263 211 181 227 319 308 294 263 223 215 212 214 201 197 205 197 204 210 211 211 212 210 209 204 202 206 205 199 198 191 187 191 189 185 183 190 187 183 181
Height
1496 1496 1496 1497 1508 1511 1515 1505 1492 1486 1482 1479 1479 1479 1478 1476 1475 1488 1474 1475 1478 1483 1487 1492 1496 1500 1503 1506 1509 1511 1512 1513 1514 1515 1517 1519 1521 1522 1524 1526 1527 1529 1530 1531 1532 1533 1533 1534 1533
1496 1496 1497 1497 1515 1525 1515 1494 1490 1480 1475 1476 1477 1478 1477 1475 1475 1475 1476 1476 1478 1481 1487 1491 1495 1499 1503 1506 1509 1511 1512 1513 1514 1515 1517 1520 1521 1523 1524 1525 1527 1528 1530 1531 1532 1533 1533 1533 1533
1495 1496 1498 1503 1522 1523 1514 1489 1483 1475 1475 1474 1475 1475 1475 1476 1476 1475 1475 1477 1479 1483 1486 1490 1494 1497 1502 1506 1508 1510 1511 1513 1514 1516 1518 1519 1521 1522 1524 1525 1527 1527 1529 1530 1531 1531 1531 1531 1532
1495 1496 1499 1508 1511 1506 1497 1482 1478 1472 1471 1469 1471 1475 1475 1474 1475 1476 1477 1479 1482 1485 1488 1489 1493 1497 1500 1504 1507 1509 1511 1512 1514 1517 1518 1519 1521 1522 1524 1525 1526 1527 1528 1529 1529 1530 1531 1530 1532
1494 1495 1505 1510 1506 1495 1486 1480 1477 1474 1471 1468 1469 1472 1474 1473 1475 1476 1477 1479 1482 1485 1489 1491 1494 1497 1500 1502 1505 1508 1510 1511 1513 1515 1517 1518 1520 1521 1524 1525 1526 1527 1528 1529 1530 1528 1530 1530 1532
1494 1496 1512 1516 1503 1490 1482 1476 1476 1472 1472 1469 1469 1471 1472 1472 1475 1478 1480 1482 1483 1484 1488 1491 1493 1496 1500 1502 1503 1506 1509 1511 1513 1515 1516 1518 1519 1520 1522 1523 1524 1526 1526 1528 1530 1529 1527 1529 1530
1495 1501 1508 1504 1499 1490 1479 1474 1473 1471 1471 1470 1468 1472 1472 1471 1472 1475 1480 1483 1485 1488 1487 1489 1493 1495 1498 1502 1504 1506 1507 1509 1512 1514 1515 1517 1519 1519 1521 1522 1523 1524 1526 1525 1529 1528 1526 1530 1529
1490 1496 1502 1500 1498 1490 1474 1472 1471 1472 1469 1468 1468 1468 1467 1466 1471 1475 1477 1481 1484 1487 1489 1491 1490 1494 1497 1500 1503 1505 1507 1508 1510 1513 1514 1515 1516 1518 1519 1521 1522 1524 1525 1526 1527 1528 1528 1528 1529
1485 1497 1506 1496 1492 1481 1472 1472 1466 1467 1468 1469 1465 1463 1464 1465 1470 1473 1475 1479 1482 1484 1487 1489 1491 1491 1494 1498 1500 1502 1503 1506 1508 1510 1512 1513 1515 1516 1518 1520 1522 1523 1525 1522 1526 1528 1528 1527 1528
1478 1492 1487 1476 1475 1474 1470 1472 1468 1467 1465 1466 1464 1462 1461 1462 1466 1470 1471 1471 1476 1481 1485 1488 1489 1491 1493 1494 1496 1499 1501 1504 1507 1510 1511 1511 1513 1515 1517 1519 1522 1523 1524 1523 1525 1526 1526 1526 1526
1478 1479 1473 1470 1469 1470 1467 1466 1466 1463 1464 1459 1458 1457 1458 1460 1461 1465 1467 1470 1471 1477 1482 1483 1487 1489 1491 1494 1493 1496 1500 1503 1505 1507 1509 1510 1512 1513 1516 1518 1521 1521 1522 1522 1523 1524 1524 1525 1525
1480 1472 1470 1467 1466 1466 1465 1463 1461 1460 1456 1457 1456 1456 1456 1455 1456 1457 1462 1464 1468 1470 1475 1480 1484 1485 1487 1488 1493 1495 1496 1499 1501 1503 1506 1509 1510 1512 1513 1517 1519 1520 1520 1521 1521 1522 1523 1524 1524
1475 1470 1468 1467 1464 1461 1460 1458 1456 1453 1451 1452 1451 1450 1451 1451 1452 1455 1458 1462 1465 1467 1470 1474 1478 1481 1482 1485 1487 1492 1494 1496 1498 1500 1502 1505 1508 1510 1512 1514 1517 1518 1519 1520 1520 1521 1522 1524 1524
1471 1469 1465 1461 1458 1457 1456 1452 1452 1447 1446 1445 1444 1444 1443 1444 1445 1451 1454 1455 1461 1464 1466 1472 1474 1476 1481 1478 1482 1487 1490 1493 1495 1498 1500 1502 1504 1507 1510 1511 1514 1515 1517 1519 1519 1520 1521 1522 1523
1470 1470 1464 1456 1453 1452 1450 1453 1449 1443 1443 1442 1441 1442 1442 1440 1444 1442 1445 1449 1453 1462 1466 1466 1471 1475 1478 1481 1481 1482 1485 1489 1492 1494 1496 1500 1502 1504 1507 1510 1512 1513 1515 1517 1518 1519 1520 1522 1522
1472 1472 1475 1456 1452 1448 1450 1457 1442 1440 1440 1439 1439 1439 1439 1440 1440 1442 1445 1446 1446 1452 1457 1464 1466 1468 1474 1476 1479 1481 1483 1486 1488 1491 1493 1496 1499 1502 1505 1507 1509 1511 1513 1516 1516 1518 1519 1520 1522
1477 1481 1475 1468 1452 1452 1450 1451 1440 1438 1437 1436 1434 1436 1435 1435 1437 1439 1441 1443 1445 1449 1457 1460 1462 1465 1468 1472 1476 1478 1481 1481 1486 1487 1488 1491 1496 1498 1501 1504 1507 1509 1511 1514 1516 1516 1517 1518 1521
1479 1478 1474 1474 1460 1454 1457 1445 1438 1435 1435 1432 1431 1431 1431 1429 1428 1434 1436 1439 1445 1447 1450 1454 1457 1462 1466 1467 1470 1474 1476 1480 1480 1484 1485 1486 1491 1495 1498 1501 1504 1507 1509 1512 1513 1515 1516 1518 1520
1468 1471 1473 1464 1458 1458 1455 1442 1435 1431 1429 1428 1425 1426 1425 1422 1421 1424 1428 1430 1435 1441 1444 1446 1449 1454 1459 1464 1465 1468 1470 1474 1478 1480 1482 1484 1486 1491 1496 1498 1501 1503 1507 1510 1511 1512 1514 1516 1519
1467 1472 1471 1458 1452 1457 1453 1436 1433 1429 1420 1419 1417 1415 1417 1416 1417 1419 1420 1423 1424 1430 1437 1440 1444 1448 1452 1457 1462 1463 1468 1470 1473 1476 1478 1482 1486 1489 1493 1496 1498 1500 1503 1506 1508 1509 1511 1514 1516
1463 1466 1463 1460 1453 1452 1449 1430 1424 1421 1415 1414 1410 1410 1412 1411 1412 1414 1417 1418 1420 1423 1428 1433 1437 1443 1447 1454 1457 1462 1466 1469 1470 1472 1474 1477 1481 1486 1490 1493 1496 1498 1500 1502 1505 1508 1509 1510 1513
1460 1452 1450 1452 1458 1465 1444 1455 1410 1407 1409 1406 1405 1407 1406 1405 1405 1406 1409 1411 1413 1417 1424 1428 1432 1437 1443 1450 1454 1457 1459 1460 1464 1468 1471 1475 1480 1483 1487 1491 1494 1497 1499 1501 1504 1505 1507 1509 1511
1444 1442 1445 1447 1455 1458 1432 1458 1407 1406 1407 1406 1403 1402 1401 1401 1401 1398 1399 1402 1406 1412 1416 1421 1426 1433 1437 1446 1452 1456 1458 1460 1464 1467 1468 1472 1476 1480 1483 1487 1491 1495 1497 1499 1501 1503 1505 1507 1509
1437 1440 1443 1443 1452 1459 1420 1445 1415 1403 1399 1402 1401 1399 1398 1396 1395 1393 1394 1398 1399 1404 1409 1414 1421 1427 1432 1440 1448 1452 1455 1458 1460 1464 1465 1468 1473 1477 1481 1484 1488 1491 1494 1497 1499 1501 1503 1504 1506
1442 1447 1458 1455 1459 1438 1419 1430 1406 1389 1395 1398 1399 1395 1394 1392 1390 1388 1388 1389 1391 1393 1397 1407 1416 1421 1429 1435 1443 1451 1456 1458 1461 1461 1464 1465 1470 1475 1479 1482 1484 1488 1491 1494 1496 1499 1500 1502 1503
1448 1447 1459 1449 1440 1431 1419 1429 1409 1394 1392 1395 1395 1393 1390 1386 1384 1384 1385 1383 1383 1388 1394 1401 1409 1416 1423 1431 1440 1447 1452 1457 1460 1462 1464 1465 1469 1472 1476 1481 1484 1486 1487 1491 1493 1496 1498 1500 1501
1449 1452 1443 1444 1438 1439 1421 1406 1400 1390 1391 1392 1391 1389 1388 1385 1382 1382 1384 1387 1388 1390 1394 1399 1404 1411 1419 1427 1433 1441 1447 1452 1459 1462 1463 1466 1468 1471 1475 1479 1482 1485 1486 1488 1490 1493 1496 1499 1500
1447 1444 1447 1445 1440 1430 1416 1409 1399 1397 1396 1395 1394 1392 1386 1385 1384 1384 1385 1387 1390 1393 1398 1398 1404 1411 1413 1423 1430 1436 1440 1446 1452 1460 1460 1461 1469 1469 1474 1476 1479 1483 1483 1487 1489 1491 1494 1497 1500
1451 1453 1449 1444 1438 1435 1427 1415 1399 1400 1397 1394 1393 1389 1387 1386 1385 1386 1387 1387 1388 1391 1391 1397 1401 1408 1417 1418 1425 1432 1435 1442 1448 1453 1455 1461 1467 1468 1471 1474 1475 1482 1482 1484 1488 1491 1494 1497 1499
1443 1440 1443 1444 1434 1423 1412 1405 1398 1393 1389 1388 1390 1389 1388 1387 1383 1381 1382 1385 1384 1386 1391 1393 1397 1401 1411 1414 1423 1428 1434 1440 1447 1447 1450 1458 1466 1467 1469 1471 1473 1478 1481 1483 1485 1491 1494 1496 1499